CANX-4

导读

CANX-4卫星于2014年6月30日由加拿大发射,作为一颗小型技术验证卫星,旨在测试太空新技术与空间环境感知能力。它承载着航天科研探索使命,服役期间为加拿大乃至全球航天领域积累了低轨运行数据,对后续微小卫星技术发展与空间任务规划提供了重要参考。

Basic Information
目录编号:
40055
目录名称:
CANX-4
国际标识:
2014-034C
轨道中心:
EARTH
卫星名称:
CANX-4
卫星全名:
--
卫星状态:
在轨 (已飞行4450 天)
发射日期:
2014-06-30 UTC
国别 :
加拿大 (CA)
星等 :
--
Orbit Information
数据来源 国际轨道数据
星历时间: 2026-09-05T12:42:18+0800
13小时前
查看轨道信息
半长轴: 7003.105km
偏心率: 0.0013946
轨道倾角: 98.298°
近地点辐角 111.368°
升交点赤经 126.400°
平近点角 248.902°
近地点: 615.201km
远地点: 634.735km
周期: 97.207分钟
每日圈数: 14.813812
Detailed Information
使用方式:
暂无
2D Orbit Map
3D Orbit Map
Orbit Altitude Analysis Chart
Orbit Inclination Analysis Chart
Orbit Comprehensive Analysis Chart
View Comprehensive Chart
Conjunction Data List
Event ID Objects TCA Miss Dist (km) Collision Risk Probability Collision Risk Index (CRI) Action
CDM_260906-010504-005506-714522
CANX-4 (40055)
2026-09-06T
01:05:48+0000
1.239 km
极远距离
1.26149E-5 中风险 0.57
CDM_260906-182704-005506-841524
CANX-4 (40055)
2026-09-06T
18:27:24+0000
2.391 km
极远距离
1.154452E-6 低风险 0.36